Regional Weather Roundup
Issued by NWS

Home | Current Version | Previous Version | Graphics & Text | Print | Product List | Glossary On
Versions: 1 2 3 4 5 6 7 8 9 10 11 12 13 14 15 16 17 18 19 20 21 22 23 24 25 26 27 28 29 30 31 32 33 34 35 36 37 38 39 40 41 42 43 44 45 46 47 48 49 50
000
ASUS43 KLSX 301807
RWRMO

WEATHER SUMMARY FOR MISSOURI
NATIONAL WEATHER SERVICE SPRINGFIELD MO
100 PM CDT TUE SEP 30 2014

NOTE: "FAIR" INDICATES FEW OR NO CLOUDS BELOW 12,000 FEET WITH NO
       SIGNIFICANT WEATHER AND/OR OBSTRUCTIONS TO VISIBILITY.
       CURRENT SKY AND/OR WEATHER CONDITIONS ARE NOT AVAILABLE FOR
       CHILLICOTHE AND FARMINGTON.

MOZ001>031-035>038-043-044-053-054-301900-
...NORTHERN AND WESTERN MISSOURI...

CITY           SKY/WX    TMP DP  RH WIND       PRES   REMARKS
KANSAS CTY INT MOSUNNY   82  60  47 S15       29.88F
6HR MIN TEMP:  61; 6HR MAX TEMP:  82;

KANSAS C DTWN  SUNNY     84  58  40 S13       29.87F
6HR MIN TEMP:  63; 6HR MAX TEMP:  84;

LEE`S SUMMIT   SUNNY     82  59  45 S12       29.90F
ST JOSEPH      SUNNY     84  58  40 S17G25    29.86F
6HR MIN TEMP:  56; 6HR MAX TEMP:  85;

CHILLICOTHE      N/A     83  61  47 SE7       29.90F
6HR MIN TEMP:  56; 6HR MAX TEMP:  83;

KIRKSVILLE     MOSUNNY   69  61  75 E12       29.96F
6HR MIN TEMP:  59; 6HR MAX TEMP:  69;


$$
MOZ066>068-077>081-088>096-101>105-301900-
...SOUTHWEST MISSOURI...

CITY           SKY/WX    TMP DP  RH WIND       PRES   REMARKS
SPRINGFIELD    MOSUNNY   79  59  50 SW12      29.94F
6HR MIN TEMP:  59; 6HR MAX TEMP:  81;

JOPLIN         MOSUNNY   81  58  45 S15       29.92F
6HR MIN TEMP:  59; 6HR MAX TEMP:  83;


$$
MOZ032>034-039>042-045>050-055>058-069>072-301900-
...CENTRAL MISSOURI...

CITY           SKY/WX    TMP DP  RH WIND       PRES   REMARKS
COLUMBIA       SUNNY     83  58  42 S8        29.92F
6HR MIN TEMP:  59; 6HR MAX TEMP:  83;

JEFFERSON CITY SUNNY     84  58  40 S7        29.91F
6HR MIN TEMP:  54; 6HR MAX TEMP:  85;

ROLLA          MOSUNNY   80  56  43 S8        29.93F
6HR MIN TEMP:  59; 6HR MAX TEMP:  83;

SEDALIA        MOSUNNY   86  60  41 S9        29.92F
6HR MIN TEMP:  59; 6HR MAX TEMP:  86;

WHITEMAN AFB   MOSUNNY   82  60  47 W8        29.90F
OSAGE BEACH    PTSUNNY   82  57  42 W5        29.92F

$$
MOZ051-052-059>065-301900-
...EAST CENTRAL MISSOURI...

CITY           SKY/WX    TMP DP  RH WIND       PRES   REMARKS
ST LOUIS INTL  MOSUNNY   82  57  42 CALM      29.95F
6HR MIN TEMP:  62; 6HR MAX TEMP:  85;

SPIRIT OF STL  MOSUNNY   82  62  50 CALM      29.93F
6HR MIN TEMP:  53; 6HR MAX TEMP:  82;

ST CHARLES     SUNNY     82  58  43 NE8       29.93F
6HR MIN TEMP:  55; 6HR MAX TEMP:  82;


$$
MOZ072>076-082>087-097>100-106>115-301900-
...SOUTH CENTRAL AND SOUTHEAST MISSOURI...

CITY           SKY/WX    TMP DP  RH WIND       PRES   REMARKS
CAPE GIRARDEAU SUNNY     85  53  33 VRB5      29.93F
6HR MIN TEMP:  50; 6HR MAX TEMP:  85;

FARMINGTON     SUNNY     82  54  36 NE6       29.97F
6HR MIN TEMP:  52; 6HR MAX TEMP:  82;

POPLAR BLUFF   MOSUNNY   85  52  32 VRB6      29.93F
6HR MIN TEMP:  55; 6HR MAX TEMP:  85;

WEST PLAINS    MOSUNNY   81  52  36 VRB7      29.97F
6HR MIN TEMP:  55; 6HR MAX TEMP:  82;


$$



USA.gov is the U.S. government's official web portal to all federal, state and local government web resources and services.